Flag for Germany Weather past 2 weeks in Itzehoe, Schleswig-Holstein, Germany

Now
32 °F

Passing clouds.


Feels Like: 26 °F
Forecast: 35 / 47 °F
Wind: 6 mph from West

Location: Hohn

Current Time: Apr 2, 2015 at 8:35:46 AM

Latest Report: Apr 2, 2015 at 7:20 AM


Visibility: N/A

Pressure: 29.65 "Hg

Humidity: 93%

Dew point: 30 °F

Location of ItzehoeLocation

Historic Weather in Itzehoe — Graph

°F

Itzehoe temperature yesterday

Maximum temperature yesterday: 46 °F (at 3:20 PM)
Minimum temperature yesterday: 34 °F (at 9:20 AM)
Average temperature yesterday: 39 °F

Past Weeks' High & Low Weather Summary

 TemperatureHumidityPressure
High57 °F (Mar 18, 1:20 PM)100% (Mar 20, 7:20 AM)30.45 "Hg (Mar 20, 7:20 AM)
Low27 °F (Mar 20, 5:20 AM)25% (Mar 19, 2:20 PM)28.85 "Hg (Mar 31, 8:20 AM)
Average41 °F80%29.82 "Hg
* Reported Mar 18 6:20 AM — Apr 2 7:20 AM, Itzehoe, Weather by CustomWeather, © 2015

Note: Actual official high and low records may vary slightly from our data, if they occured in-between our weather recording intervals... More about our weather records

Advertising

Itzehoe weather history for previous 24 hours

 ConditionsComfort  
Time TempWeatherWind HumidityBarometerVisibility
7:20 AM
Thu, Apr 2
32 °FPassing clouds.6 mph93%29.65 "HgN/A
6:20 AM32 °FPassing clouds.7 mph93%29.65 "HgN/A
5:20 AM32 °FPassing clouds.7 mph100%29.65 "HgN/A
4:20 AM34 °FChilly.8 mph93%29.65 "Hg4 mi
3:20 AM36 °FChilly.10 mph93%29.65 "Hg4 mi
2:20 AM37 °FChilly.12 mph87%29.68 "Hg4 mi
1:20 AM36 °FChilly.8 mph93%29.68 "Hg4 mi
12:20 AM36 °FChilly.10 mph93%29.71 "Hg4 mi
11:20 PM
Wed, Apr 1
36 °FChilly.10 mph87%29.74 "Hg4 mi
10:20 PM37 °FChilly.10 mph87%29.74 "Hg4 mi
9:20 PM37 °FChilly.16 mph81%29.77 "Hg4 mi
8:20 PM37 °FChilly.15 mph87%29.77 "Hg4 mi
7:20 PM41 °FQuite cool.18 mph76%29.80 "Hg4 mi
6:20 PM39 °FPartly sunny.25 mph70%29.77 "HgN/A
5:20 PM43 °FScattered clouds.22 mph61%29.77 "HgN/A
4:20 PM43 °FScattered clouds.28 mph57%29.77 "HgN/A
3:20 PM46 °FScattered clouds.30 mph50%29.74 "HgN/A
2:47 PM45 °FSnow flurries. Scattered clouds.31 mph53%29.74 "Hg5 mi
2:20 PM45 °FPassing clouds.28 mph53%29.74 "HgN/A
1:20 PM43 °FPartly sunny.32 mph66%29.71 "HgN/A
12:20 PM41 °FPartly sunny.29 mph70%29.68 "HgN/A
11:20 AM41 °FPartly sunny.25 mph76%29.68 "HgN/A
10:20 AM36 °FSnow flurries. Fog.25 mph93%29.65 "Hg3 mi
10:00 AM37 °FBroken clouds.28 mph87%29.62 "Hg5 mi
9:20 AM34 °FSprinkles. Broken clouds.29 mph93%29.62 "Hg4 mi
8:50 AM39 °FSprinkles. Fog.25 mph87%29.59 "Hg2 mi
8:20 AM37 °FPartly sunny.26 mph87%29.59 "HgN/A
8:04 AM39 °FSprinkles. Fog.17 mph81%29.56 "Hg3 mi
Weather by CustomWeather, © 2015

See weather overviewHow to use our weather pages